Wind_Speed
11 8 5 5 8 4 5 5 3 2 2 2 2 2 3 2 3 1 3 7 8 7 5 5 11 17 20 18 17 18 18 17 17 16 15 13 12 11 14 16 18 21 23 24 25 26 28 28 29 29 28 29 30 31 30 30 30 30 29 29 30 30 29
14 10 6 7 5 4 2 5 2 3 4 5 5 3 1 2 1 1 5 11 14 12 9 10 14 18 21 19 18 19 19 19 18 16 13 10 10 11 14 16 18 23 26 26 26 28 29 28 28 28 28 28 30 30 30 30 31 32 31 30 30 30 29
13 13 8 7 2 3 1 2 1 2 2 3 3 2 1 1 0 2 4 11 16 17 16 18 22 23 23 21 20 20 20 19 18 14 11 10 11 13 15 15 19 25 27 27 28 29 28 27 27 28 28 28 29 29 29 29 30 31 32 32 30 28 26
12 14 12 9 6 5 4 4 3 3 1 2 3 3 3 3 2 2 2 5 11 19 21 20 22 24 25 23 22 22 21 19 17 14 12 11 14 16 14 15 21 26 26 27 28 28 26 25 26 27 28 28 28 29 29 29 29 30 31 32 30 26 23
9 7 5 7 8 9 10 8 6 7 2 2 4 6 5 4 2 2 3 2 9 17 21 19 18 20 24 24 24 24 21 18 16 15 14 15 17 17 14 16 22 25 24 25 27 26 24 23 24 26 27 27 28 29 29 29 29 29 30 30 29 25 22
9 5 3 1 5 10 12 10 9 10 6 4 4 6 7 6 3 3 4 3 8 13 17 17 16 17 20 22 21 20 18 17 16 16 17 19 19 16 15 19 23 24 23 23 25 25 23 22 23 24 26 27 28 28 28 29 28 28 29 28 27 24 22
10 6 1 1 5 9 11 10 10 11 12 12 10 7 7 6 4 3 3 3 7 9 11 13 14 16 18 19 19 18 17 17 17 19 21 21 19 16 16 20 23 24 23 23 24 23 22 21 22 23 25 26 27 27 27 28 28 27 26 26 24 24 23
12 12 7 4 6 8 10 10 10 11 14 15 13 10 9 7 5 5 4 3 7 10 10 11 13 17 19 20 20 20 19 19 20 22 23 21 18 16 18 22 23 24 25 26 24 22 21 21 21 22 24 25 26 27 27 27 26 24 24 23 23 23 23
9 12 10 7 7 9 10 8 8 9 12 11 11 12 10 7 7 8 5 4 9 11 10 12 16 21 22 23 24 24 23 23 23 23 23 20 17 17 20 22 23 23 26 26 24 23 22 21 22 23 25 26 27 27 27 26 24 22 22 23 23 23 24
5 8 10 11 11 11 11 10 10 10 10 11 13 15 12 10 11 13 12 11 14 12 10 13 18 22 26 28 28 28 27 26 25 24 23 19 17 18 21 22 23 25 26 24 22 23 23 22 23 24 25 27 27 26 26 25 23 21 21 22 23 23 24
14 14 15 16 15 14 13 11 11 12 10 12 16 17 16 16 17 19 20 19 19 17 16 17 19 23 28 31 32 32 30 28 27 25 21 17 17 20 21 21 23 26 26 23 22 23 22 22 23 24 26 26 25 24 25 24 22 20 20 22 22 23 23
18 18 17 17 15 15 15 14 14 16 15 17 19 19 19 20 19 19 21 22 22 21 19 19 21 24 28 31 33 32 30 28 26 23 18 16 18 21 21 21 23 25 24 22 22 23 22 22 23 24 25 25 24 23 23 23 22 20 19 21 22 23 22
18 17 16 17 17 17 18 19 19 20 21 22 22 20 18 18 19 20 20 22 24 23 21 20 21 22 26 29 31 30 28 27 25 21 18 19 21 22 21 21 23 24 23 22 23 23 22 21 22 22 23 23 23 23 22 22 21 19 19 20 22 23 22
19 19 18 18 18 19 21 22 21 20 23 25 23 20 18 18 20 21 21 21 24 22 20 21 21 22 25 28 30 29 27 26 23 21 20 21 22 22 20 20 22 24 23 22 22 23 22 21 22 21 21 23 23 22 21 21 20 19 19 20 22 23 22
15 17 19 19 18 18 20 22 21 19 19 21 22 22 22 23 23 22 20 21 23 23 21 20 19 21 24 28 29 29 27 25 23 22 21 22 22 21 19 19 22 24 22 22 23 23 23 23 23 21 21 23 23 22 20 20 20 19 19 20 22 22 22
13 13 14 15 18 19 22 24 23 19 17 20 23 24 24 25 25 25 23 22 23 23 21 18 15 15 21 27 28 27 25 24 23 22 21 22 21 19 19 20 23 22 21 23 24 24 24 24 23 22 23 24 23 21 20 19 19 19 18 20 21 21 22
14 13 12 14 15 16 18 20 19 17 16 17 19 22 24 25 25 23 21 21 21 19 17 16 13 11 15 21 24 24 23 23 23 22 20 19 18 20 22 24 24 22 22 23 23 24 24 23 23 24 24 23 22 21 20 19 19 18 18 19 20 20 21
13 13 14 13 11 11 15 16 15 15 16 16 18 21 23 24 20 17 16 17 17 16 15 14 11 8 9 14 18 21 21 22 22 20 17 17 19 23 25 25 23 22 23 24 23 24 23 23 23 23 22 21 20 20 20 20 19 18 18 19 20 20 20
12 13 13 9 8 14 19 18 17 20 20 18 17 17 18 19 18 17 18 18 17 15 12 10 8 8 10 13 17 19 19 20 19 16 17 20 23 25 26 26 24 24 23 23 24 24 23 23 23 21 20 20 20 21 21 20 18 18 18 19 20 20 20
11 12 11 9 11 18 21 20 18 18 17 16 16 16 16 18 21 24 24 17 10 9 9 9 11 12 13 15 16 17 17 17 18 19 21 23 25 26 27 27 26 24 23 23 25 25 24 23 22 19 19 20 21 22 22 20 18 18 18 19 19 19 19
14 14 14 15 16 18 21 20 13 9 10 12 14 19 20 20 21 25 25 17 8 7 10 12 13 14 14 16 17 18 18 19 21 23 24 26 27 27 27 27 26 23 21 24 26 26 24 22 20 18 19 20 22 23 22 20 19 19 19 18 18 19 19
18 17 15 13 10 13 19 17 10 10 14 12 10 14 18 16 15 16 18 16 12 10 11 13 14 15 17 18 19 19 19 21 23 23 24 26 27 26 25 25 22 18 20 26 29 27 24 21 20 19 20 20 21 22 22 23 23 22 21 19 18 18 18
20 19 17 12 11 16 20 17 11 14 17 14 11 11 13 13 12 11 12 14 13 13 13 15 17 18 19 19 19 18 19 21 21 21 23 24 24 24 23 20 17 18 23 30 31 28 27 25 22 21 21 21 22 23 24 24 24 23 21 19 18 17 17
24 23 21 19 19 21 21 18 15 16 17 15 12 9 11 14 14 11 11 13 14 14 15 16 17 18 18 18 19 21 23 21 19 20 22 23 22 20 19 17 18 22 28 32 31 29 29 27 23 21 21 22 24 26 25 24 24 22 20 18 18 18 17
31 28 25 22 22 22 19 17 16 16 16 17 15 13 13 15 15 13 11 12 13 14 14 15 16 16 18 20 23 25 24 21 20 19 19 19 19 18 18 20 23 27 31 33 31 29 30 28 23 22 22 23 25 26 25 24 23 21 19 18 17 16 16
33 32 29 23 21 23 21 19 17 16 15 16 18 17 15 15 16 15 14 14 13 14 14 15 16 18 20 22 24 23 21 20 20 19 17 16 18 19 22 26 28 29 31 32 29 30 30 28 24 22 22 24 26 26 24 23 21 19 18 16 14 13 14
30 29 25 17 16 21 22 20 19 18 17 17 18 17 16 17 17 16 16 16 15 15 17 18 19 20 21 22 22 22 22 22 23 22 21 21 23 25 27 29 30 30 30 29 29 29 28 25 23 23 23 24 25 25 23 21 19 19 19 16 13 11 12
28 28 25 21 21 22 19 17 18 17 16 17 16 14 14 15 16 17 18 18 18 19 20 21 21 21 21 22 22 23 24 25 25 26 26 27 28 29 29 29 29 28 28 28 28 27 24 23 23 23 24 25 25 23 22 19 17 18 18 16 13 11 12
27 28 27 25 24 22 18 16 17 17 15 15 15 15 15 15 16 18 19 19 20 20 21 21 21 21 21 21 22 23 24 25 25 26 27 28 28 27 27 27 26 26 27 28 27 25 22 23 23 23 23 25 24 22 20 18 17 18 18 16 13 11 12
21 23 24 21 19 20 20 19 19 18 16 15 15 16 17 17 18 18 19 20 20 20 20 21 21 21 21 22 23 23 23 22 22 22 23 24 25 25 26 26 26 26 28 29 27 25 23 23 22 22 23 24 23 21 20 19 18 18 17 17 15 12 11
16 17 19 19 17 15 16 16 16 14 13 13 14 14 14 15 16 18 19 20 20 20 21 21 21 22 23 24 23 21 19 19 20 20 21 22 23 25 26 26 26 28 29 29 28 26 24 23 23 23 23 23 22 20 19 19 18 17 17 17 16 13 11
12 11 13 15 14 13 14 14 12 11 13 14 15 15 16 17 18 19 20 22 23 23 24 24 23 24 25 25 24 22 20 20 20 21 21 22 23 24 26 26 27 28 28 28 28 27 24 23 23 23 23 23 22 20 18 17 17 17 17 18 18 15 13
7 9 11 13 11 12 15 16 14 14 16 18 18 19 20 20 21 21 22 23 24 25 26 26 26 26 26 25 25 25 25 25 24 23 22 22 23 24 25 26 26 27 27 28 28 27 24 23 23 23 23 23 22 20 17 16 16 17 17 18 18 17 15
9 9 10 11 10 11 13 14 15 15 15 16 18 19 20 21 22 23 24 23 24 25 26 26 26 25 25 25 26 26 27 28 26 25 24 24 24 24 25 27 28 28 27 27 26 25 23 22 21 22 23 23 21 19 18 17 18 18 17 17 17 16 15
14 14 14 14 14 15 15 16 17 18 17 16 16 17 17 19 21 22 24 24 25 27 29 30 30 30 30 30 30 29 28 27 27 27 28 28 27 27 28 29 30 30 27 24 22 22 21 21 21 21 21 20 18 17 17 17 17 17 17 16 15 15 16
20 19 19 19 19 20 21 21 20 20 21 21 21 22 21 21 22 23 25 26 28 30 31 32 33 34 34 34 33 31 29 28 28 29 30 30 30 30 31 31 30 29 27 23 20 20 20 20 21 21 20 18 16 16 15 15 15 16 16 16 16 16 16
22 23 22 20 19 20 22 24 24 24 25 26 27 27 26 27 28 29 30 31 32 33 32 31 31 32 32 33 32 31 30 29 29 30 31 31 31 31 30 29 29 28 27 25 23 23 22 22 21 19 18 18 17 16 16 16 16 16 16 16 16 15 15
Wind_Direction
205 206 206 303 333 319 239 227 245 290 274 276 290 230 237 305 333 311 139 131 145 162 157 175 199 207 209 206 205 210 220 228 237 248 260 279 295 304 318 325 322 321 325 331 335 337 338 337 336 334 332 327 322 322 322 321 321 320 321 322 322 321 319
203 211 236 275 321 17 249 234 273 311 273 278 276 241 320 37 51 253 193 173 170 167 157 167 190 200 199 198 202 210 219 228 236 245 258 275 285 301 319 321 321 328 332 334 335 337 337 335 333 330 326 322 320 320 321 321 320 319 322 324 323 322 319
201 202 230 262 249 89 91 217 280 306 268 254 231 201 56 80 309 303 205 188 191 192 184 180 189 198 199 196 201 210 221 230 236 245 257 271 288 306 316 316 324 333 335 334 335 336 335 332 329 325 323 321 320 319 320 320 318 319 323 324 325 324 318
209 208 227 247 229 196 181 174 240 276 302 299 252 201 173 181 230 282 184 190 211 209 206 203 202 204 204 204 208 217 228 237 244 254 262 275 294 303 306 314 327 334 335 335 335 334 334 330 325 322 322 322 320 319 319 317 317 320 322 324 326 325 318
192 189 216 245 239 215 192 186 226 243 244 320 263 226 217 206 184 173 165 220 240 222 219 224 225 221 221 224 229 234 241 248 256 261 264 277 291 295 302 316 327 332 335 336 334 334 334 329 323 321 321 320 318 318 318 317 319 321 324 326 327 325 320
175 145 71 328 227 212 207 208 222 229 241 281 255 228 232 223 189 163 169 240 264 239 226 230 236 238 239 243 247 250 253 258 262 263 267 277 284 292 307 317 324 330 335 336 332 333 335 330 323 320 319 317 316 316 317 318 320 324 326 328 328 327 323
177 168 49 344 205 213 224 231 235 242 255 268 263 242 232 224 211 197 187 245 277 259 238 236 238 243 249 254 257 258 255 254 259 265 271 276 282 293 307 314 321 328 333 335 333 333 334 331 324 320 318 317 316 317 317 318 322 326 328 329 329 328 325
206 215 243 256 233 238 242 245 256 261 262 269 267 252 240 225 215 216 191 219 270 269 262 254 240 238 245 248 248 247 245 248 259 269 273 277 284 295 305 313 320 326 331 335 334 333 333 331 326 322 320 319 319 319 319 320 324 329 330 330 330 327 324
224 232 242 246 239 236 236 244 258 263 268 266 248 241 243 236 247 256 233 240 274 277 270 252 231 229 236 237 235 237 241 250 261 268 271 277 287 298 306 312 318 324 332 335 333 333 335 333 330 327 324 323 322 321 321 324 329 332 331 330 329 326 325
214 236 245 251 248 237 236 242 237 245 275 276 251 242 236 233 251 253 244 262 280 277 261 244 229 228 233 232 234 239 244 252 260 264 269 278 289 298 305 312 318 326 334 335 333 334 336 334 332 329 326 324 323 323 325 329 333 334 331 328 326 325 325
236 245 251 254 251 241 239 243 237 240 266 279 267 253 244 249 255 248 249 264 269 258 249 248 246 242 238 237 240 245 248 255 260 262 268 278 288 296 305 313 319 328 335 335 333 335 336 333 331 328 325 323 324 326 329 331 334 334 330 327 326 326 328
245 247 247 243 242 245 253 263 267 265 268 273 271 264 262 267 261 250 256 260 255 249 248 251 254 252 248 246 246 248 251 256 259 261 266 275 286 297 307 315 322 330 334 331 331 336 336 332 329 325 323 324 326 328 330 331 333 332 329 328 328 329 330
242 241 238 237 242 252 261 266 270 271 268 268 271 275 279 275 263 263 273 266 257 262 267 267 268 270 266 257 248 247 250 252 254 258 261 272 289 302 309 317 325 329 328 325 329 335 335 330 325 323 323 325 326 327 329 329 330 331 330 329 331 333 332
244 244 245 247 248 253 259 261 265 272 270 264 265 272 282 284 280 284 286 273 267 273 277 273 269 270 266 254 244 244 246 246 249 254 262 280 299 307 311 319 324 323 321 321 327 333 333 329 326 324 324 324 324 325 327 327 328 330 330 329 331 335 336
246 246 247 249 251 257 264 262 261 268 267 261 262 268 275 281 284 286 282 271 271 276 275 269 262 257 251 243 241 242 241 241 246 254 271 294 307 309 311 316 317 316 316 318 325 331 332 330 328 327 326 323 322 324 327 327 329 330 328 328 330 335 339
239 240 245 250 253 261 266 261 258 262 260 260 265 269 271 270 269 271 273 270 273 279 279 275 269 257 244 238 238 239 237 240 250 265 286 303 310 310 308 308 310 312 313 316 323 329 332 331 329 327 325 322 321 326 330 330 329 328 326 326 328 334 340
237 241 247 256 265 270 266 256 253 259 262 264 266 266 270 271 266 263 266 267 270 278 282 279 276 264 248 242 241 240 242 251 267 284 299 306 307 303 299 302 308 313 314 317 325 331 332 331 328 324 322 321 323 329 331 330 327 327 326 325 328 333 338
242 245 246 258 272 269 260 257 255 261 270 278 279 275 273 273 269 262 267 274 279 287 293 291 287 276 257 247 243 246 256 271 285 295 298 295 294 293 295 304 313 314 314 321 330 332 330 329 327 324 322 323 326 329 329 328 328 329 328 325 327 332 335
245 247 245 254 262 255 262 273 269 263 267 275 285 285 274 267 268 272 278 285 289 290 289 280 267 254 247 248 253 262 275 285 288 285 282 285 290 294 301 310 312 310 314 324 329 327 327 330 330 328 327 327 327 329 331 332 330 330 330 327 327 330 332
233 237 230 234 257 263 273 284 280 271 270 267 268 270 265 264 271 276 281 288 284 268 260 250 248 253 258 264 271 275 279 279 279 281 286 293 298 300 305 307 306 307 316 324 324 322 325 331 332 329 327 325 324 328 335 339 335 331 329 326 325 328 329
234 236 233 242 261 271 275 281 287 294 295 283 268 264 262 261 262 265 271 276 264 241 246 252 256 262 267 270 275 279 280 282 287 293 296 298 299 301 304 305 304 308 317 321 318 319 326 331 329 325 323 322 324 328 335 340 337 330 325 322 322 326 328
240 240 242 248 257 265 271 276 279 283 292 301 294 270 257 246 242 246 253 256 255 251 250 252 256 260 264 270 278 284 288 291 293 294 294 295 298 301 303 302 302 304 311 316 317 321 328 330 327 323 321 322 328 333 334 334 332 326 320 317 316 319 323
237 230 233 236 238 255 274 283 273 264 276 297 305 278 245 228 224 228 234 242 252 261 261 259 261 262 267 277 285 288 290 293 292 289 290 293 296 297 295 293 292 295 306 314 318 322 329 331 326 322 320 323 331 335 334 331 329 325 318 311 308 310 315
235 231 231 237 244 257 276 287 275 261 269 285 287 264 241 238 238 234 238 247 255 259 259 260 261 265 272 280 284 287 290 289 284 284 289 291 288 287 287 287 290 297 307 314 317 322 328 329 323 318 320 326 331 334 333 331 328 324 316 307 303 304 309
233 233 230 235 247 256 269 280 272 263 267 268 255 241 240 243 236 227 228 239 246 248 251 255 258 264 273 279 285 291 291 284 278 280 284 281 277 279 284 290 296 303 309 313 315 320 324 322 318 318 323 328 330 330 331 329 326 321 316 309 305 305 308
230 230 229 234 244 250 260 271 268 256 250 247 246 248 244 231 222 220 221 227 236 243 250 259 265 270 278 286 291 292 286 277 275 277 276 274 278 284 290 295 300 305 309 310 312 315 317 315 314 319 325 327 327 328 329 327 321 315 310 308 312 316 317
226 225 225 231 242 249 255 260 257 250 243 242 248 251 244 233 228 224 223 229 238 249 260 271 275 278 281 285 287 285 280 277 277 277 276 279 284 289 294 297 299 302 305 306 307 310 312 311 311 316 321 323 324 326 327 322 315 310 307 307 317 332 331
218 217 222 231 244 253 254 244 239 242 245 247 251 250 244 242 240 236 238 245 252 259 268 275 278 279 281 281 282 282 280 277 275 275 278 282 286 288 291 293 295 299 300 300 301 305 309 311 312 314 316 318 321 325 325 319 310 307 309 309 315 332 337
222 225 232 240 247 253 251 238 235 244 251 255 259 258 254 252 251 251 256 261 265 267 269 273 277 281 283 283 283 283 280 277 275 276 281 285 288 289 290 290 292 294 295 295 297 300 306 311 313 312 313 316 320 322 321 315 305 302 306 307 311 326 337
229 230 236 244 251 253 251 248 249 253 259 263 266 267 267 266 265 265 268 272 274 275 274 275 278 279 278 277 277 279 280 279 279 281 284 285 286 286 287 287 288 290 292 293 295 299 305 309 310 309 311 316 319 319 317 313 306 301 299 302 308 321 330
231 231 234 236 240 240 239 243 247 246 245 249 254 257 260 262 262 266 271 273 273 273 273 271 269 269 270 272 275 276 276 276 279 281 282 281 280 280 282 284 287 291 293 293 295 299 302 303 304 306 310 313 315 315 314 311 305 298 294 297 305 312 317
223 221 215 211 212 209 206 212 221 223 224 230 237 242 246 252 257 263 268 270 271 273 273 270 269 270 273 276 277 276 274 275 280 283 283 281 280 280 284 288 290 292 293 292 293 296 296 296 300 305 308 310 311 311 309 306 299 293 289 293 298 302 307
188 186 192 197 204 208 208 212 218 220 221 227 234 242 248 254 259 263 265 266 268 270 272 272 274 275 277 278 280 280 280 280 282 284 285 284 283 284 287 290 291 292 291 289 289 291 292 294 298 303 306 308 309 308 303 298 294 292 292 293 294 298 304
204 196 204 216 226 231 235 242 245 244 242 244 248 253 255 257 260 262 262 263 265 268 272 275 276 276 277 281 284 286 288 287 286 285 283 280 280 284 286 289 292 293 291 288 288 288 290 293 296 300 303 306 309 310 305 297 292 293 294 294 294 295 299
241 237 236 241 247 252 258 264 265 266 267 266 267 267 265 263 264 264 263 264 266 271 275 278 279 279 280 282 285 286 285 283 282 282 281 280 281 284 287 289 292 292 289 288 287 288 290 293 293 295 301 304 307 310 307 299 294 293 294 294 292 288 289
261 262 260 260 262 266 269 270 270 269 269 270 272 273 271 271 271 271 271 272 274 277 279 280 279 278 278 278 280 279 277 277 278 279 280 281 283 284 286 289 291 290 287 283 284 287 289 289 287 290 296 300 299 298 296 292 289 290 290 290 288 284 285
265 267 268 269 270 271 271 271 273 275 276 278 279 278 277 278 278 278 280 284 286 288 288 285 282 281 281 281 280 277 276 276 277 277 277 279 281 282 284 286 286 286 281 278 282 289 289 285 283 286 291 292 290 287 284 282 282 283 283 282 281 281 282
Height
3177 3178 3178 3179 3179 3179 3179 3179 3179 3179 3179 3179 3180 3181 3181 3180 3180 3180 3179 3179 3179 3179 3178 3178 3178 3180 3181 3182 3183 3184 3184 3184 3185 3185 3186 3186 3186 3186 3186 3186 3185 3184 3183 3181 3179 3177 3174 3172 3170 3168 3166 3164 3162 3160 3157 3155 3153 3151 3150 3148 3146 3143 3141
3176 3177 3178 3178 3178 3178 3178 3178 3178 3178 3178 3179 3179 3180 3180 3180 3181 3180 3179 3178 3178 3178 3178 3178 3178 3179 3180 3181 3182 3182 3182 3182 3182 3183 3184 3185 3184 3184 3185 3184 3183 3182 3180 3179 3176 3174 3172 3169 3168 3166 3164 3162 3160 3157 3155 3153 3150 3148 3146 3145 3143 3140 3138
3175 3176 3177 3177 3177 3177 3177 3177 3178 3177 3177 3177 3177 3178 3179 3180 3181 3180 3179 3178 3177 3176 3176 3175 3176 3176 3177 3178 3179 3179 3179 3180 3181 3182 3182 3182 3182 3183 3183 3182 3181 3180 3178 3176 3174 3172 3169 3167 3165 3164 3162 3160 3158 3155 3153 3151 3148 3146 3143 3142 3140 3138 3135
3175 3175 3175 3176 3176 3176 3176 3177 3177 3177 3177 3177 3177 3177 3177 3178 3180 3179 3179 3179 3176 3174 3174 3174 3174 3175 3175 3176 3176 3177 3177 3178 3179 3180 3180 3181 3181 3182 3182 3180 3179 3178 3176 3174 3171 3169 3167 3165 3164 3162 3160 3158 3155 3153 3151 3149 3147 3144 3141 3139 3137 3135 3133
3174 3174 3174 3175 3175 3175 3175 3176 3176 3176 3176 3176 3176 3176 3175 3176 3177 3178 3179 3178 3174 3172 3174 3174 3174 3175 3175 3175 3175 3176 3176 3177 3178 3178 3178 3179 3180 3180 3180 3178 3177 3175 3174 3172 3169 3167 3166 3164 3162 3160 3158 3155 3153 3151 3149 3147 3145 3142 3139 3137 3134 3132 3130
3172 3172 3172 3173 3173 3174 3174 3175 3175 3175 3175 3176 3176 3176 3174 3174 3174 3175 3177 3176 3172 3171 3172 3173 3173 3174 3174 3174 3174 3174 3175 3175 3176 3176 3177 3178 3178 3178 3178 3176 3175 3173 3172 3170 3168 3166 3165 3163 3160 3158 3155 3153 3151 3149 3147 3144 3143 3140 3137 3135 3132 3129 3127
3171 3171 3171 3172 3172 3173 3174 3174 3174 3174 3174 3174 3174 3174 3173 3173 3173 3173 3174 3173 3170 3170 3171 3171 3172 3173 3173 3173 3172 3173 3173 3174 3174 3175 3175 3176 3176 3176 3175 3174 3173 3172 3171 3169 3166 3165 3163 3161 3158 3156 3154 3152 3149 3147 3145 3142 3140 3138 3135 3133 3130 3127 3125
3169 3170 3170 3171 3171 3172 3172 3173 3173 3173 3173 3172 3172 3172 3171 3171 3171 3171 3172 3171 3168 3169 3170 3170 3170 3171 3171 3171 3170 3170 3171 3172 3173 3173 3173 3173 3173 3174 3173 3172 3171 3170 3169 3167 3165 3163 3161 3158 3156 3154 3152 3149 3147 3144 3142 3140 3138 3136 3133 3131 3128 3125 3123
3168 3169 3169 3169 3170 3170 3171 3171 3172 3172 3171 3171 3170 3170 3170 3169 3169 3169 3169 3168 3166 3167 3168 3168 3169 3169 3170 3169 3168 3169 3169 3170 3171 3171 3171 3171 3171 3171 3170 3170 3169 3168 3166 3164 3162 3160 3158 3155 3153 3151 3148 3146 3144 3142 3139 3137 3136 3134 3131 3129 3126 3123 3120
3167 3168 3168 3168 3168 3169 3169 3169 3170 3170 3170 3169 3169 3168 3167 3167 3166 3166 3166 3166 3165 3166 3165 3166 3167 3167 3167 3167 3167 3167 3168 3168 3168 3168 3168 3169 3169 3169 3168 3168 3167 3165 3163 3162 3160 3157 3155 3152 3150 3148 3146 3143 3141 3139 3137 3135 3133 3131 3129 3127 3124 3121 3119
3164 3165 3166 3166 3167 3167 3167 3167 3168 3168 3168 3168 3168 3167 3165 3165 3164 3163 3163 3164 3164 3164 3164 3164 3164 3164 3164 3164 3164 3164 3165 3166 3166 3166 3167 3167 3167 3167 3166 3166 3164 3162 3160 3159 3157 3155 3152 3150 3147 3145 3143 3141 3139 3137 3135 3133 3131 3129 3127 3125 3122 3119 3117
3162 3163 3164 3165 3165 3165 3165 3165 3165 3166 3166 3166 3165 3164 3163 3164 3162 3159 3160 3162 3162 3161 3162 3162 3161 3161 3161 3161 3161 3162 3163 3163 3164 3164 3165 3165 3165 3165 3164 3163 3161 3159 3158 3156 3154 3152 3150 3147 3145 3143 3141 3139 3137 3135 3133 3131 3129 3127 3125 3123 3121 3118 3115
3161 3161 3162 3162 3163 3162 3162 3163 3163 3163 3164 3163 3163 3162 3161 3161 3159 3157 3158 3159 3157 3158 3159 3159 3159 3159 3158 3159 3159 3160 3161 3161 3162 3163 3163 3164 3164 3163 3162 3160 3158 3157 3155 3154 3152 3150 3148 3146 3144 3142 3139 3137 3135 3133 3131 3129 3127 3126 3124 3122 3119 3117 3114
3159 3159 3160 3160 3160 3160 3160 3160 3161 3161 3161 3160 3160 3159 3159 3158 3156 3155 3156 3155 3154 3155 3156 3156 3157 3157 3157 3157 3157 3158 3158 3159 3160 3161 3161 3162 3161 3160 3158 3157 3155 3155 3153 3152 3150 3148 3146 3144 3142 3140 3138 3135 3133 3131 3130 3128 3126 3124 3122 3120 3118 3115 3113
3157 3157 3157 3158 3158 3158 3157 3157 3158 3159 3158 3157 3157 3157 3156 3155 3153 3153 3153 3151 3150 3152 3152 3153 3154 3154 3154 3154 3155 3155 3156 3157 3158 3159 3159 3159 3158 3156 3155 3154 3153 3153 3152 3150 3148 3146 3144 3142 3139 3137 3135 3133 3131 3129 3128 3126 3124 3122 3120 3118 3116 3114 3112
3154 3155 3156 3156 3156 3155 3154 3154 3156 3156 3156 3155 3155 3155 3154 3153 3152 3151 3150 3148 3148 3148 3149 3150 3150 3150 3151 3151 3152 3153 3154 3155 3156 3157 3157 3156 3154 3152 3152 3152 3152 3151 3149 3148 3146 3144 3142 3139 3137 3135 3133 3131 3129 3128 3126 3125 3123 3121 3119 3117 3115 3113 3110
3153 3154 3155 3154 3154 3153 3152 3151 3153 3154 3153 3153 3153 3152 3151 3150 3149 3148 3147 3146 3145 3146 3147 3147 3148 3148 3149 3150 3151 3152 3153 3154 3154 3154 3153 3152 3151 3150 3150 3150 3149 3148 3147 3145 3144 3142 3139 3137 3135 3133 3131 3129 3127 3126 3125 3123 3122 3120 3118 3116 3113 3111 3109
3151 3152 3153 3153 3153 3151 3149 3150 3151 3152 3151 3151 3150 3149 3148 3147 3146 3146 3145 3144 3143 3144 3145 3145 3146 3147 3148 3149 3151 3152 3152 3152 3152 3151 3150 3150 3149 3149 3148 3147 3146 3145 3144 3142 3141 3139 3137 3135 3134 3131 3129 3127 3126 3124 3123 3122 3120 3119 3116 3114 3112 3110 3108
3150 3151 3152 3152 3150 3147 3147 3149 3149 3149 3149 3148 3148 3147 3146 3144 3143 3143 3142 3142 3142 3142 3143 3144 3145 3146 3147 3148 3149 3150 3150 3149 3149 3148 3148 3148 3147 3146 3145 3145 3144 3142 3141 3140 3138 3137 3135 3134 3132 3129 3127 3125 3124 3123 3121 3120 3118 3117 3115 3113 3111 3109 3107
3149 3149 3149 3149 3146 3145 3147 3147 3146 3146 3146 3146 3146 3145 3143 3141 3141 3140 3140 3140 3140 3141 3142 3143 3144 3145 3146 3146 3146 3147 3147 3147 3147 3147 3146 3145 3144 3143 3143 3142 3141 3140 3139 3138 3136 3135 3133 3132 3130 3127 3125 3124 3122 3121 3119 3118 3116 3115 3114 3112 3110 3108 3106
3146 3146 3145 3144 3143 3144 3144 3144 3144 3144 3143 3143 3144 3143 3140 3140 3139 3138 3138 3139 3139 3140 3141 3142 3143 3143 3143 3144 3144 3145 3145 3145 3145 3144 3142 3141 3141 3141 3140 3139 3138 3137 3136 3135 3134 3133 3132 3130 3128 3126 3124 3122 3120 3118 3117 3116 3115 3114 3113 3111 3109 3107 3105
3143 3143 3143 3143 3142 3141 3141 3142 3143 3142 3141 3141 3142 3140 3138 3138 3137 3137 3138 3138 3139 3139 3140 3141 3141 3142 3141 3142 3142 3143 3143 3142 3142 3141 3140 3139 3138 3138 3137 3136 3134 3133 3133 3132 3132 3131 3129 3127 3125 3124 3122 3120 3118 3116 3115 3114 3113 3112 3111 3109 3107 3106 3104
3140 3140 3140 3139 3139 3138 3138 3140 3141 3140 3140 3140 3141 3139 3137 3136 3137 3137 3137 3137 3138 3138 3139 3139 3139 3139 3139 3140 3140 3140 3140 3139 3138 3138 3137 3136 3135 3134 3133 3132 3131 3131 3130 3130 3129 3127 3125 3124 3123 3121 3119 3118 3116 3114 3112 3111 3110 3109 3108 3107 3105 3104 3102
3136 3137 3136 3135 3135 3135 3136 3137 3138 3138 3138 3139 3139 3138 3135 3136 3136 3136 3136 3137 3137 3137 3137 3137 3138 3138 3138 3138 3138 3137 3136 3136 3135 3135 3134 3133 3132 3131 3130 3130 3129 3128 3128 3127 3125 3123 3122 3121 3120 3119 3117 3116 3113 3112 3110 3108 3107 3106 3105 3104 3103 3102 3100
3132 3133 3133 3132 3131 3132 3134 3135 3135 3136 3136 3136 3136 3135 3134 3135 3135 3135 3135 3136 3136 3136 3136 3136 3136 3136 3136 3136 3135 3134 3134 3133 3133 3132 3132 3131 3130 3129 3128 3128 3127 3126 3125 3124 3122 3121 3120 3119 3118 3117 3115 3113 3111 3110 3108 3106 3105 3104 3103 3102 3101 3099 3098
3129 3130 3130 3129 3128 3130 3132 3133 3133 3134 3134 3133 3132 3133 3133 3133 3133 3134 3135 3134 3134 3135 3135 3135 3135 3134 3134 3133 3133 3132 3132 3131 3131 3130 3129 3129 3128 3127 3126 3125 3124 3123 3123 3122 3120 3119 3118 3117 3115 3114 3113 3111 3109 3108 3106 3104 3103 3102 3101 3100 3099 3097 3095
3126 3127 3127 3126 3125 3127 3129 3130 3130 3131 3131 3131 3131 3131 3132 3132 3132 3133 3133 3133 3133 3133 3133 3133 3133 3132 3132 3131 3130 3130 3129 3129 3128 3127 3127 3126 3126 3125 3124 3123 3122 3121 3121 3119 3118 3117 3116 3114 3113 3112 3110 3109 3107 3105 3104 3102 3101 3100 3099 3098 3097 3095 3094
3122 3122 3122 3122 3123 3125 3126 3127 3127 3128 3128 3129 3130 3130 3130 3130 3131 3131 3131 3131 3132 3132 3132 3131 3131 3130 3130 3129 3128 3127 3127 3126 3125 3125 3124 3123 3123 3122 3122 3121 3120 3119 3118 3117 3116 3115 3113 3112 3111 3109 3108 3106 3105 3103 3101 3100 3098 3097 3097 3096 3095 3094 3092
3119 3118 3119 3120 3122 3123 3124 3124 3125 3126 3127 3128 3128 3128 3128 3128 3128 3128 3129 3129 3129 3129 3129 3129 3128 3128 3127 3126 3126 3125 3124 3123 3123 3122 3121 3120 3120 3119 3119 3119 3118 3117 3116 3114 3113 3112 3111 3110 3109 3107 3106 3104 3102 3100 3099 3098 3097 3095 3094 3094 3093 3092 3090
3117 3117 3118 3119 3120 3121 3121 3121 3122 3123 3124 3125 3125 3125 3125 3125 3125 3125 3126 3126 3125 3125 3125 3125 3125 3124 3124 3123 3123 3122 3121 3120 3120 3119 3119 3118 3117 3117 3116 3116 3115 3115 3113 3112 3111 3109 3108 3107 3106 3105 3103 3101 3099 3098 3096 3095 3094 3093 3092 3091 3091 3090 3089
3115 3115 3116 3117 3118 3118 3118 3118 3119 3120 3121 3122 3122 3122 3122 3122 3122 3122 3122 3122 3122 3122 3121 3121 3121 3121 3120 3120 3119 3118 3118 3117 3117 3116 3116 3115 3115 3114 3114 3113 3113 3112 3111 3109 3108 3107 3105 3104 3103 3102 3101 3099 3097 3095 3094 3093 3092 3091 3090 3089 3089 3088 3087
3113 3114 3114 3114 3115 3115 3115 3116 3116 3117 3118 3118 3119 3119 3119 3119 3120 3120 3120 3120 3119 3118 3118 3117 3117 3117 3117 3116 3115 3115 3115 3114 3113 3113 3113 3112 3112 3112 3111 3110 3110 3109 3108 3106 3105 3104 3103 3102 3101 3100 3099 3097 3095 3093 3091 3090 3090 3089 3089 3088 3087 3086 3085
3112 3112 3112 3112 3113 3114 3114 3115 3115 3116 3117 3117 3117 3117 3117 3117 3117 3117 3117 3117 3116 3115 3114 3114 3114 3113 3113 3113 3112 3112 3111 3110 3110 3109 3109 3109 3109 3108 3108 3107 3106 3105 3104 3103 3102 3101 3100 3099 3099 3098 3096 3094 3092 3090 3089 3088 3087 3087 3086 3086 3085 3084 3084
3110 3111 3111 3111 3112 3112 3113 3113 3114 3115 3115 3116 3116 3115 3115 3115 3115 3114 3114 3114 3113 3112 3111 3111 3110 3110 3110 3109 3109 3108 3107 3107 3106 3106 3106 3105 3105 3105 3104 3104 3103 3102 3101 3100 3099 3098 3097 3097 3096 3095 3093 3091 3090 3088 3087 3086 3085 3084 3084 3083 3083 3082 3082
3108 3108 3109 3110 3110 3111 3111 3112 3113 3113 3113 3113 3113 3113 3112 3112 3113 3113 3112 3112 3111 3110 3109 3109 3108 3108 3107 3106 3106 3105 3105 3104 3104 3103 3102 3102 3101 3101 3101 3100 3099 3098 3097 3096 3096 3095 3094 3093 3092 3091 3090 3089 3087 3086 3084 3083 3083 3082 3081 3081 3080 3080 3080
3105 3105 3106 3107 3108 3109 3109 3110 3110 3110 3110 3110 3110 3110 3110 3110 3110 3110 3110 3110 3109 3108 3107 3107 3106 3105 3104 3103 3102 3102 3102 3101 3101 3100 3099 3099 3098 3097 3097 3096 3096 3095 3093 3092 3092 3091 3090 3090 3089 3088 3087 3086 3085 3083 3082 3081 3080 3079 3079 3079 3078 3078 3077
3102 3103 3103 3103 3104 3105 3106 3106 3106 3106 3107 3107 3107 3107 3107 3107 3106 3106 3106 3106 3105 3104 3103 3102 3101 3100 3100 3099 3099 3099 3098 3098 3097 3096 3096 3095 3095 3094 3093 3092 3091 3090 3089 3088 3088 3088 3087 3086 3085 3084 3084 3083 3082 3081 3080 3078 3078 3077 3076 3076 3076 3075 3075